Location: Dittelspoint
(48.7198°N, 10.7214°E)
Time: 07:42:08
(UTC+00:00)

Abrixas rocket - Pass Details

Date: 09 April 2020
Orbit: 344 x 351 km, 48.4° (Epoch: 02 June)

Event Time Altitude Azimuth Distance (km) Brightness Sun altitude
Rises 19:51:30 0° 280° (W) 2,169 7.0 -17.5°
Reaches altitude 10° 19:53:43 10° 266° (W) 1,326 5.5 -17.8°
Enters shadow 19:56:07 25° 212° (SSW) 771 3.5 -18.1°
